星链-34858 (STARLINK-34858)

导读

STARLINK-34858是美国于2025年7月30日发射的卫星,属于SpaceX星链星座。星链计划旨在构建全球卫星互联网星座,为全球提供高速低延迟网络服务。该卫星继承星链技术特点,在近地轨道运行,服务全球偏远地区网络覆盖,推动全球互联基础设施建设,助力太空互联网布局进一步完善。

基本信息
目录编号:
65023
目录名称:
STARLINK-34858
国际标识:
2025-161J
轨道中心:
EARTH
卫星名称:
星链-34858
卫星全名:
星链-34858 (STARLINK-34858)
卫星状态:
在轨 (已飞行410 天)
发射日期:
2025-07-30 UTC
国别 :
美国 (US)
星等 :
--
该卫星已列入 空间交会检测服务 Space Conjunction Data Service (SCDS) ,当前飞行风险评估等级: 无高风险
轨道信息
数据来源 国际轨道数据
星历时间: 2026-09-12T07:16:38+0800
1天前
查看轨道信息
半长轴: 6840.825km
偏心率: 0.0001207
轨道倾角: 53.159°
近地点辐角 115.234°
升交点赤经 147.286°
平近点角 244.879°
近地点: 461.862km
远地点: 463.514km
周期: 93.847分钟
每日圈数: 15.344053
详细信息
固有亮度:
5
最大亮度:
2.5
卫星平台:
Starlink V1.0
覆盖范围:
全球
运营商:
太空探索技术公司
运营商所在国:
美国
制造商(研发单位):
太空探索技术公司
制造商所在国:
美国
使用方式:
暂无
卫星简介
Starlink 计划是 SpaceX 推出的全球卫星互联网项目,通过发射低轨道卫星,为全球尤其是偏远地区提供高速、低延迟的互联网服务。自 2019 年起,Starlink 已部署数千颗卫星,旨在缩小全球数字鸿沟,推动互联网普及。该项目还为军事、航空等行业提供通信支持,带来广泛经济效益。
2D轨道图
3D轨道图
轨道高度分析图
轨道倾角分析图
轨道综合分析图
查看轨道综合分析图
交会数据列表
事件ID 空间交会对象 最接近时刻(TCA) 交会距离 交会风险概率(CRP) 交会风险指数(CRI) 操作
CDM_260914-070205-236306-502322
2026-09-14T
07:02:57+0000
1.602 km
极远距离
3.493674E-6 低风险 0.46
CDM_260914-171205-236306-502321
2026-09-14T
17:12:36+0000
1.605 km
极远距离
3.477844E-6 低风险 0.46
CDM_260914-083605-236306-502322
2026-09-14T
08:36:45+0000
1.643 km
极远距离
3.238927E-6 低风险 0.45
CDM_260914-184605-236306-502322
2026-09-14T
18:46:24+0000
1.942 km
极远距离
2.037672E-6 低风险 0.41
与全量物体交会距离演化趋势
与全量物体交会风险概率演化趋势